Regional Weather Roundup
Issued by NWS Glasgow, MT

Home | Current Version | Previous Version | Text Only | Print | Product List | Glossary On
Versions: 1 2 3 4 5 6 7 8 9 10 11 12 13 14 15 16 17 18 19 20 21 22 23 24 25 26 27 28 29 30 31 32 33 34 35 36 37 38 39 40 41 42 43 44 45 46 47 48 49 50
000
ASUS45 KGGW 310015
RWRGGW
HOURLY WEATHER ROUNDUP FOR NORTHEAST MONTANA
NATIONAL WEATHER SERVICE GLASGOW MONTANA
500 PM MST FRI JAN 30 2015

NOTE: "FAIR" INDICATES FEW OR NO CLOUDS BELOW 12,000 FEET WITH NO
SIGNIFICANT WEATHER AND/OR OBSTRUCTIONS TO VISISBILITY.

NORTHEAST MONTANA


CITY           SKY/WX    TMP DP  RH WIND       PRES   REMARKS
GLASGOW        PTCLDY    34  29  82 NE7       30.17F
PLENTYWOOD       N/A     32  29  88 N9          N/A
WOLF POINT     PTCLDY    39  30  70 CALM      30.19S
JORDAN           N/A     42  26  53 E3        30.15F
WINNETT          N/A     43  24  47 E3          N/A
SIDNEY         CLEAR     34  25  69 CALM      30.20F
GLENDIVE       CLEAR     39  25  56 NW6       30.18S
MALTA            N/A     40  30  67 E3          N/A
SCOBEY           N/A     32  22  67 CALM      30.15S

FORT PECK REPORTS


CITY           SKY/WX    TMP DP  RH WIND       PRES   REMARKS
FORT PECK        N/A     42  30  62 SW3         N/A
THE PINES        N/A     37  28  70 NE3         N/A

SOUTHEAST MONTANA


CITY           SKY/WX    TMP DP  RH WIND       PRES   REMARKS
BILLINGS       PTCLDY    47  19  33 S5        30.13S
MILES CITY     CLEAR     42  27  55 CALM      30.15F
BAKER          CLEAR     38  26  62 NW5       30.15F
LIVINGSTON     PTCLDY    39  17  41 W7        30.11F

CENTRAL MONTANA


CITY           SKY/WX    TMP DP  RH WIND       PRES   REMARKS
HAVRE          CLEAR     37  26  64 E9        30.11F
LEWISTOWN      CLEAR     41  21  44 E7        30.10F
GREAT FALLS    CLEAR     41  19  41 S7        30.08F
CUT BANK       CLEAR     43  17  35 SE7       30.06F
HELENA         CLEAR     43  25  49 CALM      30.13F
BUTTE          CLEAR     36  21  54 NW6       30.15S
BOZEMAN        CLEAR     38  24  57 E5        30.15F

WESTERN MONTANA


CITY           SKY/WX    TMP DP  RH WIND       PRES   REMARKS
MISSOULA       CLEAR     34  25  69 SW3       30.21F
KALISPELL      NOT AVBL

NORTH DAKOTA


CITY           SKY/WX    TMP DP  RH WIND       PRES   REMARKS
WILLISTON      CLEAR     35  26  69 N9        30.19R
DICKINSON      CLEAR     37  25  61 N9        30.13S
MINOT          CLOUDY    27  22  81 NW18      30.18R
BISMARCK       CLEAR     39  28  64 NW12      30.15R

SOUTHERN SASKATCHEWAN


CITY           SKY/WX    TMP DP  RH WIND       PRES   REMARKS
REGINA         CLOUDY    19  18  93 NW10      30.25R
ESTEVAN        CLOUDY    21  19  93 NW15G22   30.20S
SWIFT CURRENT  FOG       25  25 100 NE7       30.16S VSB 1/2



USA.gov is the U.S. government's official web portal to all federal, state and local government web resources and services.